STARLINK-38085, 69996

Orbit data source: Space-Track

STARLINK-38085, 69996 is a payload satellite owned by SpaceX/Seattle (US) in SSO that was launched on Sat, 11 Jul 2026 UTC via an FALCON 9 launch vehicle from the Air Force Western Test Range (AFWTR). Payload-class satellites include a variety of spacecraft equipped with specific instruments for various scientific and technological missions. These include communications satellites like Starlink; space stations such as the ISS; scientific satellites like the Hubble; Earth observation satellites from companies like Planet Labs, Umbra, and HawkEye 360; GPS; miniature CubeSats for education and research; and military/defense satellites.

Loading next visibility...
Identifier
69996, 2026-159X
Orbit
SSO
Country
Flag of USUS
Related business
Manufacturer
SpaceX/Seattle
Mission
Operational spacecraft
Bus & Motor
STARLINK V2MO, Unknown motor
Mass
575 kg wet, ~530 kg dry
Launch date (UTC)
2026-07-11 (2 months ago)
Launch vehicle
FALCON 9
Launch site
Air Force Western Test Range (AFWTR)
Object type
Payload
Rocket body
Debris
Shape & HBR
BOX + PAN, 17.7 m
Radar Cross Section
Large (>1 m²)

Expand to show TLE details & history
Last TLE update: 11 hours ago

TLE from 11 hours ago
0 STARLINK-38085
1 69996U 26159X   26265.56891849  .00013604  00000-0  25128-3 0  9998
2 69996  97.2855 107.3490 0002159  30.6569 329.4808 15.49197384 12768
Epoch: 2026-09-22T13:39Z
TLE epoch observation values (Epoch: 2026-09-22T13:39:14.557Z)
Latitude
-0.00003°
Longitude
-98.89417°
Altitude
420.942 km
Speed
7.659 km/s
True Right ascension
07h 09m 23s
True Declination
0° 00' 00"
Sunlit
Object was in daylight at epoch
Visualization orbit readout
Latitude
Unknown
Longitude
Unknown
Altitude
Unknown
Speed
Unknown
Apparent Right ascension
Unknown
Apparent Declination
Unknown
Sunlit
N/A
Visualization observer readout
Local Sidereal Time
18:10:09
Azimuth
Unknown
Elevation
Unknown
Doppler factor
Unknown
Orbital elements
Apogee altitude
417.461 km
Perigee altitude
414.528 km
Semi-major axis
6,794.132 km
Eccentricity
0.00022
Inclination
97.2855°
RAAN
107.349°
Arg. of periapsis
30.6569°
True anomaly
329.46823°
Mean anomaly
329.4808°
Eccentric anomaly
329.47452°
Mean motion
3.87563 °/min
Orbital period
92.89 mins
BSTAR
0.00025128
Loading maneuver chart data...
Computing Atmospheric mass density...
Loading historical data...
Loading historical data...
Loading historical data...
Loading historical data...
Loading historical data...
Loading historical data...
Loading historical data...

Documentation

Showing up to 5 results
|